map of GJL home
GJL - Airport
Location
City:  Jijel, Jijel, Algeria
Name:Ferhat Abbas
Old (Alt.):Taher
ICAO:DAAV
IATA:GJL

Details
Type:Airport (Aerodrome, Airfield)
Latitude:3647'40"N (36.794444)
Longitude:552'25"E (5.873611)
Elevation:36 ft (11 m)
Variation:1.69E (WMM2015 magnetic declination)
0.10 annual change
Runways:1
Longest:7874 × 148 ft (2400 × 45 m)

Time
Time Zone:UTC+1
Local Time:

Weather
METAR:DAAV 181800Z 23004KT 9999 SCT020TCU FEW026CB SCT030 20/18 Q1006
TAF:DAAV 181700Z 1818/1918 20008KT 9999 FEW013TCU SCT020 PROB30
TEMPO 1818/1821 5000 -TSRA FEW013CB
TEMPO 1900/1908 2000 BR BKN006 BKN010 PROB30
TEMPO 1903/1907 0600 FG BKN003
BECMG 1908/1910 02012KT

Related Locations
Nearby:
Farthest:GIS: 11991 mi / 19297 km
Gisborne, GIS, NZ

Find:

   beyond  
but within

Other Information
Maps:
NOTAMs:
Links:
Sources:

  
  • flag of Algeria
  

Sectional Chart

Flight Planning
at skyvector.com

Satellite Image

Google Maps Satellite view

 

Copyright © 2004-2018 Karl L. Swartz. All rights reserved.
The Great Circle Mapper name and logo are trademarks of the Great Circle Mapper.
All other trademarks mentioned herein belong to their respective owners.
Please see credits for attibutions and further copyright information.

  Follow gcmap on Facebook Follow gcmap on Twitter Follow gcmap on Google+ GCmap on LinkedIn

hCard Microformat

Geo Microformat